Memphis, TN

1:23 AM CST on December 18, 2017 (GMT -0600)
Memphis International

Weather History for KMEM - February, 2014

Change the Weather History Date:

Tuesday, February 11, 2014

  Actual Average Record
Temperature  
Mean Temperature 28 °F 44 °F  
Max Temperature 36 °F 54 °F 79 °F (2017)
Min Temperature 19 °F 35 °F 8 °F (1899)
Degree Days  
Heating Degree Days 37 21  
Month to date heating degree days 339 239  
Since 1 July heating degree days 2500 2141  
Cooling Degree Days 0 0  
Month to date cooling degree days 0 0  
Year to date cooling degree days 0 1  
Moisture  
Dew Point 11 °F    
Average Humidity 49    
Maximum Humidity 62    
Minimum Humidity 35    
Precipitation  
Precipitation T in 0.15 in 3.03 in (1880)
Month to date precipitation 4.50 1.67  
Year to date precipitation 7.66 5.65  
Snow  
Snow T in 0.00 in 3.70 in (1985)
Month to date snowfall 0.3 0.6  
Since 1 July snowfall 0.3 2.7  
Snow Depth 0.00 in    
Sea Level Pressure  
Sea Level Pressure 30.32 in    
Wind  
Wind Speed 12 mph (NNE)    
Max Wind Speed 20 mph    
Max Gust Speed 23 mph    
Visibility 10 miles    
Events Snow    
T = Trace of Precipitation, MM = Missing Value Source: NWS Daily Summary

Daily Weather History Graph

Daily Weather History Graph

Search for Another Location

Airport or City:

Trip Planner

Search our weather history database for the weather conditions in past years. The results will help you decide how hot, cold, wet, or windy it might be!

Date:

Astronomy

Feb. 11, 2014 Rise Set
Actual Time 6:50 AM CST 5:38 PM CST
Civil Twilight 6:23 AM CST 6:04 PM CST
Nautical Twilight 5:54 AM CST 6:34 PM CST
Astronomical Twilight 5:24 AM CST 7:04 PM CST
Moon 3:02 PM CST (2/11) 4:23 AM CST (2/11)
Length of Visible Light 11h 40m
Length of Day
10h 48m
Waxing Gibbous, 91% of the Moon is Illuminated
Feb 11
Waxing Gibbous
Feb 14
Full
Feb 22
Last Quarter
Mar 1
New
Mar 8
First Quarter

Hourly Weather History & Observations

Time (CST) Temp. Windchill Dew Point Humidity Pressure Visibility Wind Dir Wind Speed Gust Speed Precip Events Conditions
12:54 AM 26.1 °F 15.6 °F 12.0 °F 55% 30.35 in 10.0 mi NE 11.5 mph - N/A   Overcast
1:02 AM 26.6 °F 15.2 °F 10.4 °F 51% 30.34 in 10.0 mi NE 13.8 mph - N/A   Overcast
1:16 AM 26.6 °F 15.7 °F 12.2 °F 55% 30.33 in 7.0 mi NNE 12.7 mph - 0.00 in Snow Light Snow
1:45 AM 24.8 °F 14.0 °F 10.4 °F 54% 30.33 in 9.0 mi NE 11.5 mph - 0.00 in   Overcast
1:47 AM 24.8 °F 14.0 °F 10.4 °F 54% 30.33 in 9.0 mi NE 11.5 mph - 0.00 in   Overcast
1:54 AM 25.0 °F 13.6 °F 10.9 °F 55% 30.33 in 9.0 mi NNE 12.7 mph - 0.00 in   Overcast
2:05 AM 24.8 °F 12.4 °F 10.4 °F 54% 30.33 in 10.0 mi NNE 15.0 mph - N/A   Overcast
2:54 AM 23.0 °F 9.2 °F 10.0 °F 58% 30.32 in 10.0 mi NNE 17.3 mph 23.0 mph N/A   Overcast
3:54 AM 23.0 °F 10.6 °F 9.0 °F 55% 30.33 in 10.0 mi NNE 13.8 mph 20.7 mph N/A   Overcast
4:54 AM 21.9 °F 8.2 °F 9.0 °F 58% 30.34 in 10.0 mi NNE 16.1 mph 20.7 mph N/A   Overcast
5:54 AM 21.0 °F 9.3 °F 9.0 °F 60% 30.35 in 10.0 mi NNE 11.5 mph - N/A   Overcast
6:54 AM 19.0 °F 4.5 °F 9.0 °F 65% 30.38 in 10.0 mi North 16.1 mph - N/A   Mostly Cloudy
7:54 AM 19.0 °F 5.0 °F 8.1 °F 62% 30.40 in 10.0 mi NNE 15.0 mph - N/A   Mostly Cloudy
8:54 AM 21.0 °F 9.3 °F 8.1 °F 57% 30.40 in 10.0 mi NE 11.5 mph 18.4 mph N/A   Overcast
9:54 AM 23.0 °F 12.4 °F 9.0 °F 55% 30.42 in 10.0 mi North 10.4 mph - N/A   Mostly Cloudy
10:54 AM 27.0 °F 15.6 °F 9.0 °F 47% 30.41 in 10.0 mi ENE 13.8 mph 19.6 mph N/A   Partly Cloudy
11:54 AM 30.0 °F 20.0 °F 8.1 °F 40% 30.38 in 10.0 mi NNE 12.7 mph 20.7 mph N/A   Partly Cloudy
12:54 PM 33.1 °F 24.9 °F 10.0 °F 38% 30.35 in 10.0 mi North 10.4 mph 17.3 mph N/A   Scattered Clouds
1:54 PM 35.1 °F 27.9 °F 10.9 °F 37% 30.32 in 10.0 mi NE 9.2 mph 17.3 mph N/A   Mostly Cloudy
2:54 PM 35.1 °F 25.9 °F 10.9 °F 37% 30.30 in 10.0 mi NNE 13.8 mph - N/A   Mostly Cloudy
3:54 PM 34.0 °F 26.0 °F 12.0 °F 40% 30.28 in 10.0 mi NE 10.4 mph - N/A   Mostly Cloudy
4:54 PM 32.0 °F 21.6 °F 12.0 °F 44% 30.26 in 10.0 mi NE 15.0 mph - N/A   Overcast
5:54 PM 30.9 °F 21.2 °F 12.9 °F 47% 30.26 in 10.0 mi NE 12.7 mph - N/A   Overcast
6:54 PM 30.0 °F 19.5 °F 12.0 °F 47% 30.27 in 10.0 mi NE 13.8 mph - N/A   Overcast
7:54 PM 30.0 °F 21.1 °F 12.9 °F 49% 30.28 in 10.0 mi NNE 10.4 mph - N/A   Overcast
8:54 PM 28.9 °F 19.8 °F 12.9 °F 51% 30.29 in 10.0 mi NNE 10.4 mph - N/A   Overcast
9:54 PM 28.9 °F 21.1 °F 12.9 °F 51% 30.29 in 10.0 mi NNE 8.1 mph - N/A   Overcast
10:10 PM 28.4 °F 18.5 °F 12.2 °F 51% 30.26 in 10.0 mi NNE 11.5 mph - N/A   Overcast
10:37 PM 28.4 °F 18.0 °F 14.0 °F 55% 30.24 in 10.0 mi NNE 12.7 mph - N/A   Overcast
10:54 PM 28.9 °F 20.4 °F 14.0 °F 54% 30.24 in 10.0 mi NNE 9.2 mph - N/A   Overcast
11:12 PM 28.4 °F 19.7 °F 14.0 °F 55% 30.24 in 10.0 mi NNE 9.2 mph - N/A   Overcast
11:54 PM 28.9 °F 21.1 °F 15.1 °F 56% 30.25 in 10.0 mi NNE 8.1 mph - N/A   Overcast